HAINES AK US NWS current weather conditions

sailwx.info

Wind from 250 at 4 knots gusting 6

Air temperature -3.9° C
Dewpoint -6.6° C

Last reported at 2020-Jan-20 20:02 UTC.
Time now 2020-Jan-20 20:44 UTC

Location: N 59°14' W 135°27'.
View on Google Maps.

See reports from other nearby stations

  
Tides and Currents Weather Stations Pressure Air Temp Water Temp Dewpoint Dewpoint Depression Visibility Wind Speed Wind Dir Waves Ship Positions
date/time (UTC)wind fromknots sea level pressurealtimeterstation pressurevisibilityair tempwater tempwave heightnotes
2020-Jan-20 20:02 250 4 gusting 6 -3.9
2020-Jan-20 19:52 240 5 gusting 7 -4.5
2020-Jan-20 19:42 240 6 gusting 11 -5.1
2020-Jan-20 19:32 240 7 gusting 13 -5.7
2020-Jan-20 19:22 240 9 gusting 17 -5.4
2020-Jan-20 19:12 240 9 gusting 14 -5.3
2020-Jan-20 19:02 250 11 gusting 18 -4.5
2020-Jan-20 18:52 300 7 gusting 20 -2.7
2020-Jan-20 18:42 330 8 gusting 19 -4.8
2020-Jan-20 18:32 240 7 gusting 17 -6.5
2020-Jan-20 18:22 230 7 gusting 17 -6.6
2020-Jan-20 18:12 220 9 gusting 17 -6.7
2020-Jan-20 18:02 230 7 gusting 14 -6.8
2020-Jan-20 17:52 230 8 gusting 14 -6.9
2020-Jan-20 17:42 240 6 gusting 13 -7.1
2020-Jan-20 17:32 230 6 gusting 13 -6.9
2020-Jan-20 17:22 240 6 gusting 13 -6.3
2020-Jan-20 17:12 240 6 gusting 9 -6.3
2020-Jan-20 17:02 230 6 gusting 13 -6.3
2020-Jan-20 16:52 220 6 gusting 13 -6.4
2020-Jan-20 16:42 240 7 gusting 13 -6.7
2020-Jan-20 16:32 220 7 gusting 13 -6.9
2020-Jan-20 16:22 230 6 gusting 12 -7.1
2020-Jan-20 16:12 230 7 gusting 13 -7.4
2020-Jan-20 16:02 250 7 gusting 14 -7.5
2020-Jan-20 15:52 260 8 gusting 12 -7.8
2020-Jan-20 15:42 250 7 gusting 12 -7.9
2020-Jan-20 15:32 240 6 gusting 12 -7.7
2020-Jan-20 15:22 250 7 gusting 14 -7.7
2020-Jan-20 15:12 260 8 gusting 13 -7.1
2020-Jan-20 15:02 220 6 gusting 13 -6.6
2020-Jan-20 14:52 220 6 gusting 9 -6.7
2020-Jan-20 14:42 220 6 gusting 11 -6.9
2020-Jan-20 14:32 220 6 gusting 12 -7.1
2020-Jan-20 14:22 220 6 gusting 12 -7.2
2020-Jan-20 14:12 220 6 gusting 11 -7.2
2020-Jan-20 14:02 220 6 gusting 12 -7.1
2020-Jan-20 13:52 230 6 gusting 11 -7.0
2020-Jan-20 13:42 220 7 gusting 9 -6.9
2020-Jan-20 13:32 210 6 gusting 12 -6.7
2020-Jan-20 13:22 210 6 gusting 13 -6.8
2020-Jan-20 13:12 220 7 gusting 14 -6.9
2020-Jan-20 13:02 220 6 gusting 13 -7.1
2020-Jan-20 12:52 220 8 gusting 18 -7.8
2020-Jan-20 12:42 240 8 gusting 15 -8.3
2020-Jan-20 12:32 240 8 gusting 15 -8.2
2020-Jan-20 12:22 230 7 gusting 13 -7.9
2020-Jan-20 12:12 230 7 gusting 14 -7.7
2020-Jan-20 12:02 230 7 gusting 14 -8.0
2020-Jan-20 11:52 240 8 gusting 17 -8.2
2020-Jan-20 11:42 240 7 gusting 15 -8.7
2020-Jan-20 11:32 240 8 gusting 15 -9.1
2020-Jan-20 11:22 250 8 gusting 17 -8.8
2020-Jan-20 11:12 240 8 gusting 14 -8.5
2020-Jan-20 11:02 250 7 gusting 13 -8.5
2020-Jan-20 10:52 250 8 gusting 17 -8.5
2020-Jan-20 10:42 230 7 gusting 13 -8.0
2020-Jan-20 10:32 240 7 gusting 13 -8.2
2020-Jan-20 10:22 240 8 gusting 13 -8.5
2020-Jan-20 10:12 230 7 gusting 13 -8.4
2020-Jan-20 10:02 220 7 gusting 17 -8.4
2020-Jan-20 09:52 240 8 gusting 18 -8.5
2020-Jan-20 09:42 230 7 gusting 13 -8.5
2020-Jan-20 09:32 230 8 gusting 15 -8.6
2020-Jan-20 09:22 230 7 gusting 15 -8.9
2020-Jan-20 09:12 250 8 gusting 14 -9.0
2020-Jan-20 09:02 240 7 gusting 14 -9.0
2020-Jan-20 08:52 250 7 gusting 12 -9.0
2020-Jan-20 08:42 240 7 gusting 14 -8.9
2020-Jan-20 08:32 230 7 gusting 15 -8.7
2020-Jan-20 08:22 250 7 gusting 13 -8.4
2020-Jan-20 08:12 230 6 gusting 13 -8.5
2020-Jan-20 08:02 230 6 gusting 13 -8.5
2020-Jan-20 07:52 240 7 gusting 17 -8.6
2020-Jan-20 07:42 240 7 gusting 13 -8.4
2020-Jan-20 07:32 230 6 gusting 17 -8.4
2020-Jan-20 07:22 220 6 gusting 13 -8.3
2020-Jan-20 07:12 230 6 gusting 12 -8.3
2020-Jan-20 07:02 230 6 gusting 18 -8.5
2020-Jan-20 06:52 230 6 gusting 14 -8.7
2020-Jan-20 06:42 240 7 gusting 13 -9.0
2020-Jan-20 06:32 240 6 gusting 13 -9.3
2020-Jan-20 06:22 230 6 gusting 13 -9.4
2020-Jan-20 06:12 230 7 gusting 17 -9.4
2020-Jan-20 06:02 230 7 gusting 17 -9.4
2020-Jan-20 05:52 230 7 gusting 13 -9.3
2020-Jan-20 05:42 230 7 gusting 17 -9.0
2020-Jan-20 05:32 230 6 gusting 14 -8.8
2020-Jan-20 05:22 240 6 gusting 13 -8.9
2020-Jan-20 05:12 230 6 gusting 13 -8.9
2020-Jan-20 05:02 240 7 gusting 13 -9.0
2020-Jan-20 04:52 240 7 gusting 18 -9.2
2020-Jan-20 04:42 240 7 gusting 14 -9.4
2020-Jan-20 04:32 250 7 gusting 15 -9.5
2020-Jan-20 04:22 240 7 gusting 17 -9.4
2020-Jan-20 04:12 240 6 gusting 15 -9.4
2020-Jan-20 04:02 230 6 gusting 14 -9.5
2020-Jan-20 03:52 230 6 gusting 14 -9.7
2020-Jan-20 03:42 230 6 gusting 17 -9.8
2020-Jan-20 03:32 230 6 gusting 14 -9.7
2020-Jan-20 03:22 240 6 gusting 17 -9.5
2020-Jan-20 03:12 230 6 gusting 13 -9.6
2020-Jan-20 03:02 220 7 gusting 20 -9.5
2020-Jan-20 02:52 230 6 gusting 13 -9.5
2020-Jan-20 02:42 230 6 gusting 13 -9.8
2020-Jan-20 02:32 230 6 gusting 13 -10.2
2020-Jan-20 02:22 240 6 gusting 13 -10.2
2020-Jan-20 02:12 220 6 gusting 14 -10.3
2020-Jan-20 02:02 220 6 gusting 14 -10.2
2020-Jan-20 01:52 250 6 gusting 12 -10.0
2020-Jan-20 01:42 230 6 gusting 9 -9.8
2020-Jan-20 01:32 220 6 gusting 11 -9.9
2020-Jan-20 01:22 210 6 gusting 11 -10.0
2020-Jan-20 01:12 240 6 gusting 13 -10.2
2020-Jan-20 01:02 230 6 gusting 18 -10.2
2020-Jan-20 00:52 240 6 gusting 13 -10.3
2020-Jan-20 00:42 230 6 gusting 15 -10.2
2020-Jan-20 00:32 230 6 gusting 13 -10.3
2020-Jan-20 00:22 230 7 gusting 18 -10.5
2020-Jan-20 00:12 230 6 gusting 13 -10.5
2020-Jan-19 23:52 230 6 gusting 14 -10.6
2020-Jan-19 23:42 230 7 gusting 15 -10.6
2020-Jan-19 23:32 230 6 gusting 13 -10.5
2020-Jan-19 23:22 230 6 gusting 13 -10.5
2020-Jan-19 23:12 230 6 gusting 17 -10.5
2020-Jan-19 23:02 220 6 gusting 17 -10.3
2020-Jan-19 22:52 220 6 gusting 15 -10.2
2020-Jan-19 22:42 230 6 gusting 14 -10.3
2020-Jan-19 22:32 220 6 gusting 12 -10.2
2020-Jan-19 22:22 230 6 gusting 15 -10.2
2020-Jan-19 22:12 220 6 gusting 13 -10.4
2020-Jan-19 22:02 220 6 gusting 13 -10.5
2020-Jan-19 21:52 230 6 gusting 13 -10.6
2020-Jan-19 21:42 230 6 gusting 14 -10.6
2020-Jan-19 21:32 220 6 gusting 15 -10.7
2020-Jan-19 21:22 220 5 gusting 11 -10.9
2020-Jan-19 21:12 220 6 gusting 17 -11.1
2020-Jan-19 21:02 210 6 gusting 15 -11.1
2020-Jan-19 20:52 220 6 gusting 12 -11.1
2020-Jan-19 20:42 210 6 gusting 12 -11.2
2020-Jan-19 20:32 210 7 gusting 18 -11.2
2020-Jan-19 20:22 220 6 gusting 18 -11.2
2020-Jan-19 20:12 220 6 gusting 12 -11.2
2020-Jan-19 20:02 240 6 gusting 12 -11.0
2020-Jan-19 19:52 220 6 gusting 17 -10.9
2020-Jan-19 19:42 230 6 gusting 14 -10.9
2020-Jan-19 19:32 230 6 gusting 18 -10.7
2020-Jan-19 19:22 230 6 gusting 14 -10.5
2020-Jan-19 19:12 230 6 gusting 14 -10.7
2020-Jan-19 19:02 220 6 gusting 14 -10.9
2020-Jan-19 18:52 240 6 gusting 13 -11.0
2020-Jan-19 18:42 240 6 gusting 14 -11.1
2020-Jan-19 18:32 230 6 gusting 13 -11.0
2020-Jan-19 18:22 230 6 gusting 13 -11.2
2020-Jan-19 18:12 240 6 gusting 13 -11.3
2020-Jan-19 18:02 230 6 gusting 17 -11.1
2020-Jan-19 17:52 230 6 gusting 17 -11.1
2020-Jan-19 17:42 220 6 gusting 15 -11.3
2020-Jan-19 17:32 230 7 gusting 18 -11.4
2020-Jan-19 17:22 230 7 gusting 19 -11.5
2020-Jan-19 17:12 240 6 gusting 18 -11.7
2020-Jan-19 17:02 240 6 gusting 13 -11.6
2020-Jan-19 16:52 230 7 gusting 20 -11.7
2020-Jan-19 16:42 240 7 gusting 19 -11.6
2020-Jan-19 16:32 250 6 gusting 20 -11.4
2020-Jan-19 16:22 240 7 gusting 17 -11.3
2020-Jan-19 16:12 240 7 gusting 17 -11.2
2020-Jan-19 16:02 250 8 gusting 17 -11.3
2020-Jan-19 15:52 250 8 gusting 19 -11.4
2020-Jan-19 15:42 250 7 gusting 18 -11.4
2020-Jan-19 15:32 240 7 gusting 24 -11.6
2020-Jan-19 15:22 260 8 gusting 19 -11.9
2020-Jan-19 15:12 250 8 gusting 22 -12.0
2020-Jan-19 15:02 250 9 gusting 21 -11.9
2020-Jan-19 14:52 250 9 gusting 18 -12.0
2020-Jan-19 14:42 250 9 gusting 22 -11.9
2020-Jan-19 14:32 260 9 gusting 20 -11.7
2020-Jan-19 14:22 250 8 gusting 20 -11.7
2020-Jan-19 14:12 250 8 gusting 19 -11.7
2020-Jan-19 14:02 250 8 gusting 19 -11.4
2020-Jan-19 13:52 250 9 gusting 19 -11.5
2020-Jan-19 13:42 250 11 gusting 25 -11.4
2020-Jan-19 13:32 240 8 gusting 19 -11.3
2020-Jan-19 13:22 240 8 gusting 26 -11.5
2020-Jan-19 13:12 250 9 gusting 24 -11.7
2020-Jan-19 13:02 240 8 gusting 20 -11.9
2020-Jan-19 12:52 250 8 gusting 17 -12.0
2020-Jan-19 12:42 240 9 gusting 20 -12.0
2020-Jan-19 12:32 250 9 gusting 20 -12.0
2020-Jan-19 12:22 260 8 gusting 27 -12.1
2020-Jan-19 12:12 260 7 gusting 20 -12.3
2020-Jan-19 12:02 260 8 gusting 19 -12.2
2020-Jan-19 11:52 250 7 gusting 17 -11.8
2020-Jan-19 11:42 250 6 gusting 20 -11.7
2020-Jan-19 11:32 250 7 gusting 19 -12.0
2020-Jan-19 11:22 250 7 gusting 13 -12.3
2020-Jan-19 11:12 250 7 gusting 13 -12.3
2020-Jan-19 11:02 250 6 gusting 12 -12.2
2020-Jan-19 10:52 260 7 gusting 13 -12.2
2020-Jan-19 10:42 260 8 gusting 17 -12.1
2020-Jan-19 10:32 260 8 gusting 20 -12.1
2020-Jan-19 10:22 250 7 gusting 15 -12.1
2020-Jan-19 10:12 250 6 gusting 15 -12.3
2020-Jan-19 10:02 260 6 gusting 15 -12.2
2020-Jan-19 09:52 260 6 gusting 18 -12.0
2020-Jan-19 09:42 260 7 gusting 15 -12.0
2020-Jan-19 09:32 260 8 gusting 21 -12.3
2020-Jan-19 09:22 270 8 gusting 20 -12.6
2020-Jan-19 09:12 260 8 gusting 20 -12.8
2020-Jan-19 09:02 260 9 gusting 20 -12.7
2020-Jan-19 08:52 260 9 gusting 27 -12.7
2020-Jan-19 08:42 260 9 gusting 21 -12.7
2020-Jan-19 08:32 260 11 gusting 25 -12.7
2020-Jan-19 08:22 260 11 gusting 28 -12.5
2020-Jan-19 08:12 260 11 gusting 24 -12.6
2020-Jan-19 08:02 270 12 gusting 21 -12.5
2020-Jan-19 07:52 250 8 gusting 20 -12.4
2020-Jan-19 07:42 260 11 gusting 27 -12.5
2020-Jan-19 07:32 260 11 gusting 25 -12.3
2020-Jan-19 07:22 270 9 gusting 24 -12.1
2020-Jan-19 07:12 280 9 gusting 21 -12.1
2020-Jan-19 07:02 270 9 gusting 25 -12.0
2020-Jan-19 06:52 270 9 gusting 24 -11.8
2020-Jan-19 06:42 260 11 gusting 24 -11.7
2020-Jan-19 06:32 270 11 gusting 21 -11.7
2020-Jan-19 06:22 260 8 gusting 21 -11.6
2020-Jan-19 06:12 260 12 gusting 26 -11.7
2020-Jan-19 06:02 260 11 gusting 24 -11.7
2020-Jan-19 05:52 270 11 gusting 27 -11.8
2020-Jan-19 05:42 290 11 gusting 32 -11.9
2020-Jan-19 05:32 280 11 gusting 29 -11.9
2020-Jan-19 05:22 260 11 gusting 27 -11.9
2020-Jan-19 05:12 280 9 gusting 34 -11.9
2020-Jan-19 05:02 270 9 gusting 21 -11.8
2020-Jan-19 04:52 280 8 gusting 27 -11.9
2020-Jan-19 04:42 280 9 gusting 28 -12.0
2020-Jan-19 04:32 280 9 gusting 27 -12.2
2020-Jan-19 04:22 270 12 gusting 24 -12.4
2020-Jan-19 04:12 260 12 gusting 27 -12.7
2020-Jan-19 04:02 260 11 gusting 26 -12.8
2020-Jan-19 03:52 260 12 gusting 26 -12.8
2020-Jan-19 03:42 260 13 gusting 29 -12.9
2020-Jan-19 03:32 270 9 gusting 22 -13.1
2020-Jan-19 03:22 260 9 gusting 21 -13.1
2020-Jan-19 03:12 270 11 gusting 27 -13.1
2020-Jan-19 03:02 260 9 gusting 21 -12.9
2020-Jan-19 02:52 280 11 gusting 27 -12.9
2020-Jan-19 02:42 270 6 gusting 20 -12.8
2020-Jan-19 02:32 290 8 gusting 22 -12.8
2020-Jan-19 02:22 270 11 gusting 20 -12.5
2020-Jan-19 02:12 280 9 gusting 22 -12.6
2020-Jan-19 02:02 300 9 gusting 21 -12.5
2020-Jan-19 01:52 290 12 gusting 24 -12.4
2020-Jan-19 01:42 280 13 gusting 26 -12.7
2020-Jan-19 01:32 270 8 gusting 25 -12.7
2020-Jan-19 01:22 280 11 gusting 31 -12.9
2020-Jan-19 01:12 260 12 gusting 35 -13.1
2020-Jan-19 01:02 300 9 gusting 29 -13.2
2020-Jan-19 00:52 300 11 gusting 25 -13.7
2020-Jan-19 00:42 270 11 gusting 25 -13.7
2020-Jan-19 00:32 270 9 gusting 25 -13.6
2020-Jan-19 00:22 270 11 gusting 24 -13.6
2020-Jan-19 00:12 280 11 gusting 27 -13.6
2020-Jan-18 23:52 280 11 gusting 26 -13.8
2020-Jan-18 23:42 270 8 gusting 20 -13.7
2020-Jan-18 23:32 290 12 gusting 22 -13.8
2020-Jan-18 23:22 270 9 gusting 22 -13.9
2020-Jan-18 23:12 270 13 gusting 34 -14.0
2020-Jan-18 23:02 280 9 gusting 25 -14.1
2020-Jan-18 22:52 280 11 gusting 24 -13.9
2020-Jan-18 22:42 290 9 gusting 25 -13.8
2020-Jan-18 22:32 270 9 gusting 21 -13.6
2020-Jan-18 22:22 280 11 gusting 27 -13.4
2020-Jan-18 22:12 280 9 gusting 29 -13.5
2020-Jan-18 22:02 290 9 gusting 21 -13.6
2020-Jan-18 21:52 280 9 gusting 29 -13.6
2020-Jan-18 21:42 300 11 gusting 25 -13.8
2020-Jan-18 21:32 290 9 gusting 22 -14.0
2020-Jan-18 21:22 300 11 gusting 22 -14.2
2020-Jan-18 21:12 280 11 gusting 24 -14.3
2020-Jan-18 21:02 280 9 gusting 21 -14.5
2020-Jan-18 20:52 270 9 gusting 26 -14.5
2020-Jan-18 20:42 290 12 gusting 25 -14.8
2020-Jan-18 20:32 270 11 gusting 27 -15.0
2020-Jan-18 20:22 280 12 gusting 31 -15.2
2020-Jan-18 20:12 270 12 gusting 29 -15.2
2020-Jan-18 20:02 260 9 gusting 19 -14.9